Waarnemingen

Advertentie
Mijn weer
Lille, Frankrijk (7015): temperatuur & dauwpunt: 10.12.2017 18:00:00 - 16.12.2017 18:00:00 (CET)Lille, Frankrijk (7015): temperatuur 5cm: 10.12.2017 18:00:00 - 16.12.2017 18:00:00 (CET)Lille, Frankrijk (7015): temperatuur -20cm & temperatuur -100cm: 10.12.2017 18:00:00 - 16.12.2017 18:00:00 (CET)Lille, Frankrijk (7015): windsnelheid & windstoten: 10.12.2017 18:00:00 - 16.12.2017 18:00:00 (CET)Lille, Frankrijk (7015): windrichting: 10.12.2017 18:00:00 - 16.12.2017 18:00:00 (CET)Lille, Frankrijk (7015): luchtdruk: 10.12.2017 18:00:00 - 16.12.2017 18:00:00 (CET)Lille, Frankrijk (7015): zicht: 10.12.2017 18:00:00 - 16.12.2017 18:00:00 (CET)Lille, Frankrijk (7015): Zonneschijnduur: 10.12.2017 18:00:00 - 16.12.2017 18:00:00 (CET)Lille, Frankrijk (7015): neerslag: 10.12.2017 18:00:00 - 16.12.2017 18:00:00 (CET)
Datum & Tijd tt [°C] td [°C] tt 5cm [°C] tt -20cm [°C] tt -100cm [°C] ff [km/u] ff [kn] fx [km/u] fx [kn] dd ppp [hPa] vv [km] sd [min] rr [mm]
16.12.2017 18:00:00 - - - - - - - - - - - - - -
16.12.2017 17:00:00 2,9 0,3 2,0 4,6 7,7 17 9 34 18 W 1018,6 42 0 0,0
16.12.2017 16:00:00 4,3 1,3 4,2 4,6 7,7 22 12 39 21 W 1017,8 31 3 0,0
16.12.2017 15:00:00 5,0 1,8 4,3 4,5 7,7 23 12 36 19 W 1017,0 20 20 0,0
16.12.2017 14:00:00 4,5 1,9 4,6 4,4 7,7 23 12 34 18 W 1016,7 32 5 0,0
16.12.2017 13:00:00 4,6 2,6 4,3 4,3 7,7 22 12 34 18 W 1016,2 10 1 0,0
16.12.2017 12:00:00 4,5 2,7 4,0 4,1 7,7 22 12 31 17 W 1015,9 19 5 0,0
16.12.2017 11:00:00 4,4 2,7 3,6 4,0 7,7 21 11 32 17 WNW 1015,5 19 15 0,0
16.12.2017 10:00:00 4,0 2,7 3,1 4,0 7,7 18 10 26 14 W 1014,3 18 3 0,0
16.12.2017 09:00:00 3,7 2,2 2,4 4,0 7,7 16 8 24 13 WNW 1013,3 20 0 0,0
16.12.2017 08:00:00 2,9 1,7 2,4 3,9 7,7 8 4 22 12 WZW 1012,4 59 0 0,0
16.12.2017 07:00:00 3,0 1,5 2,3 3,9 7,7 19 11 32 17 NNW 1011,6 3,5 0 1,8
16.12.2017 06:00:00 3,6 2,1 2,4 3,9 7,7 13 7 37 20 WNW 1010,5 10 0 0,0
16.12.2017 05:00:00 3,4 2,1 2,2 3,9 7,7 16 9 23 12 WNW 1009,5 20 0 0,0
16.12.2017 04:00:00 3,2 2,3 1,6 3,9 7,7 13 7 19 10 WNW 1008,9 19 0 0,0
16.12.2017 03:00:00 3,2 2,2 2,1 4,0 7,7 13 7 27 15 WNW 1007,7 20 0 0,2
16.12.2017 02:00:00 3,4 3,1 1,3 4,0 7,7 18 10 26 14 WNW 1006,6 5 0 0,8
16.12.2017 01:00:00 1,9 1,3 -0,1 4,0 7,8 11 6 16 8 W 1005,9 4,8 0 0,2
16.12.2017 00:00:00 1,8 1,1 -0,3 4,2 7,8 13 7 18 10 WNW 1005,3 2,2 0 0,0
15.12.2017 23:00:00 2,1 0,8 0,3 4,3 7,7 10 6 23 12 WNW 1004,3 4,7 0 0,0
15.12.2017 22:00:00 4,0 2,7 3,0 4,3 7,8 13 7 26 14 NNW 1003,1 12 0 0,0
15.12.2017 21:00:00 4,3 3,0 2,9 4,3 7,8 16 9 28 15 NNW 1002,0 16 0 0,0
15.12.2017 20:00:00 3,8 2,8 2,4 4,3 7,8 16 9 24 13 NW 1000,3 18 0 0,0
15.12.2017 19:00:00 3,6 2,3 2,9 4,3 7,8 16 9 27 15 W 999,1 14 0 0,0
15.12.2017 18:00:00 4,1 2,8 2,8 4,4 7,8 18 10 30 16 W 998,0 14 0 0,2
15.12.2017 17:00:00 3,8 2,5 2,9 4,4 7,8 11 6 18 10 W 997,2 15 0 0,0
15.12.2017 16:00:00 4,6 3,3 4,2 4,3 7,8 14 8 24 13 W 996,5 12 0 0,2
15.12.2017 15:00:00 4,8 3,3 5,0 4,1 7,8 11 6 18 10 W 995,8 20 0 0,0
15.12.2017 14:00:00 4,5 2,7 4,1 3,9 7,8 9 5 16 9 WZW 995,4 51 5 0,0
15.12.2017 13:00:00 3,5 1,9 4,0 3,7 7,8 11 6 24 13 ZW 995,0 42 0 0,0
15.12.2017 12:00:00 3,9 2,3 3,9 3,6 7,8 16 9 29 16 ZZW 994,6 40 0 0,0
15.12.2017 11:00:00 3,9 2,3 3,1 3,5 7,8 17 9 31 17 ZZW 994,4 43 33 0,0
15.12.2017 10:00:00 2,6 1,4 0,1 3,5 7,8 15 8 21 12 ZZW 993,8 28 1 0,0
15.12.2017 09:00:00 1,1 0,7 -0,7 3,6 7,8 11 6 15 8 Z 993,3 8 0 0,0
15.12.2017 08:00:00 1,0 0,3 -0,4 3,7 7,8 8 4 22 12 Z 993,0 9 0 0,0
15.12.2017 07:00:00 2,3 1,3 1,4 3,7 7,8 13 7 20 11 ZZW 992,9 19 0 0,0
15.12.2017 06:00:00 2,7 1,5 2,5 3,7 7,8 13 7 23 12 ZZW 992,5 60 0 0,0
15.12.2017 05:00:00 3,0 2,1 2,5 3,6 7,8 14 8 21 11 ZZW 992,2 32 0 0,4
15.12.2017 04:00:00 3,0 2,1 2,1 3,5 7,8 13 7 23 13 Z 992,0 10 0 0,4
15.12.2017 03:00:00 2,6 1,7 1,4 3,5 7,8 16 9 26 14 ZZW 991,8 8 0 0,6
15.12.2017 02:00:00 2,1 1,1 1,0 3,5 7,8 18 10 29 15 Z 991,6 20 0 0,0
15.12.2017 01:00:00 1,6 0,6 0,4 3,6 7,8 16 8 25 13 Z 991,4 52 0 0,0
15.12.2017 00:00:00 1,3 0,4 0,5 3,7 7,8 16 8 26 14 Z 991,1 39 0 0,0
14.12.2017 23:00:00 1,6 0,7 0,5 3,8 7,9 18 10 26 14 ZZW 991,2 20 0 0,0
14.12.2017 22:00:00 1,0 0,3 0,3 3,9 7,9 14 8 30 16 ZZW 991,1 26 0 0,0
14.12.2017 21:00:00 1,6 0,7 1,2 3,9 7,9 19 10 30 16 ZZW 991,2 52 0 0,4
14.12.2017 20:00:00 2,1 1,4 0,9 4,0 7,9 13 7 29 16 ZZW 991,4 12 0 2,4
14.12.2017 19:00:00 1,0 0,4 0,1 4,1 7,9 13 7 25 14 Z 991,6 37 0 1,8
14.12.2017 18:00:00 1,6 0,7 0,7 4,2 8,0 16 9 36 19 ZW 992,3 4,9 0 6,2
14.12.2017 17:00:00 2,9 1,4 2,0 4,5 8,0 19 10 41 22 W 992,3 4,2 0 5,9
14.12.2017 16:00:00 4,3 2,6 3,6 4,5 8,0 25 13 44 24 ZZW 992,7 12 0 0,6
14.12.2017 15:00:00 4,5 3,0 3,5 4,5 8,0 20 11 48 26 ZW 993,2 60 0 1,8
14.12.2017 14:00:00 4,1 2,8 3,1 4,5 8,0 16 9 48 26 ZW 994,1 10 0 2,2
14.12.2017 13:00:00 4,2 2,7 3,1 4,5 8,0 31 17 46 25 Z 994,9 20 0 0,6
14.12.2017 12:00:00 4,1 2,1 3,7 4,5 8,0 34 18 51 28 ZZW 995,9 51 0 0,0
14.12.2017 11:00:00 4,0 2,3 2,7 4,4 8,0 26 14 42 23 ZW 996,2 10 0 0,6
14.12.2017 10:00:00 3,5 2,0 2,4 4,4 8,0 29 16 55 30 ZZW 995,9 3,8 0 1,4
14.12.2017 09:00:00 3,9 2,3 3,1 4,4 8,0 29 16 58 31 ZW 995,9 49 0 0,6
14.12.2017 08:00:00 5,5 2,0 4,0 4,4 8,1 24 13 40 21 WZW 995,9 9 0 0,4
14.12.2017 07:00:00 5,3 1,0 4,1 4,4 8,0 18 10 45 24 WZW 995,9 20 0 0,0
14.12.2017 06:00:00 5,0 0,7 3,0 4,5 8,0 22 12 40 22 WZW 996,1 48 0 0,0
14.12.2017 05:00:00 4,3 -0,1 3,2 4,7 8,0 28 15 50 27 WZW 995,8 10 0 0,0
14.12.2017 04:00:00 4,4 -0,6 3,5 4,8 8,1 36 19 67 36 WZW 995,4 60 0 0,0
14.12.2017 03:00:00 4,9 -0,1 3,5 4,9 8,1 44 24 72 39 W 993,8 10 0 0,2
14.12.2017 02:00:00 5,2 1,1 3,6 4,9 8,1 40 21 66 36 W 992,3 60 0 0,4
14.12.2017 01:00:00 4,3 2,6 3,6 5,0 8,1 34 19 66 36 ZZW 991,4 34 0 3,0
14.12.2017 00:00:00 4,4 1,9 3,2 5,1 8,1 18 10 25 14 Z 991,2 10 0 0,0
13.12.2017 23:00:00 4,8 1,1 2,8 5,3 8,1 13 7 41 22 ZW 992,5 59 0 0,0
13.12.2017 22:00:00 5,6 1,3 4,2 5,5 8,1 35 19 58 31 W 992,9 60 0 0,0
13.12.2017 21:00:00 7,0 3,2 5,6 5,5 8,1 39 21 55 30 W 992,0 57 0 0,0
13.12.2017 20:00:00 7,7 5,5 6,8 5,4 8,1 35 19 104 56 W 991,3 17 0 2,6
13.12.2017 19:00:00 8,1 7,2 7,3 5,3 8,2 35 19 61 33 ZZW 991,3 4,2 0 2,7
13.12.2017 18:00:00 7,9 6,7 7,3 5,1 8,1 35 19 62 33 Z 992,9 8 0 0,4
13.12.2017 17:00:00 7,8 6,7 7,0 5,0 8,2 31 17 45 25 Z 994,7 10 0 0,8
13.12.2017 16:00:00 7,5 6,6 7,0 4,9 8,2 26 14 40 22 Z 996,9 10 0 0,2
13.12.2017 15:00:00 7,2 6,3 6,8 4,7 8,2 22 12 34 18 Z 998,2 10 0 0,8
13.12.2017 14:00:00 7,2 6,1 6,5 4,6 8,2 16 9 37 20 ZZW 999,7 6 0 2,6
13.12.2017 13:00:00 7,4 5,9 6,7 4,3 8,2 23 12 36 19 ZZW 1000,7 20 0 0,0
13.12.2017 12:00:00 6,9 5,5 6,1 4,1 8,2 28 15 42 23 ZZW 1001,6 40 0 0,0
13.12.2017 11:00:00 6,4 5,0 5,1 4,0 8,2 25 14 54 29 ZZW 1002,1 50 0 0,0
13.12.2017 10:00:00 5,4 4,7 4,5 3,9 8,2 37 20 57 31 Z 1002,0 17 0 0,0
13.12.2017 09:00:00 4,8 3,9 4,3 3,7 8,2 40 21 64 35 Z 1002,8 9 0 0,2
13.12.2017 08:00:00 4,7 3,7 4,0 3,6 8,2 39 21 56 30 Z 1003,8 12 0 0,4
13.12.2017 07:00:00 4,4 3,4 3,5 3,5 8,3 34 19 58 31 Z 1004,7 6 0 1,2
13.12.2017 06:00:00 4,1 2,4 3,3 3,4 8,2 32 17 56 31 Z 1006,1 14 0 0,2
13.12.2017 05:00:00 3,9 2,1 3,2 3,3 8,3 29 16 46 25 Z 1007,8 15 0 0,0
13.12.2017 04:00:00 3,7 1,7 2,6 3,2 8,3 29 16 45 25 Z 1009,4 10 0 0,0
13.12.2017 03:00:00 2,9 1,3 1,9 3,2 8,3 25 14 42 23 Z 1010,2 18 0 0,0
13.12.2017 02:00:00 2,3 0,8 1,7 3,2 8,3 24 13 45 24 Z 1010,9 14 0 0,0
13.12.2017 01:00:00 2,4 0,9 1,6 3,1 8,3 24 13 35 19 Z 1011,8 14 0 0,0
13.12.2017 00:00:00 1,9 0,6 0,9 3,2 8,3 19 10 32 17 Z 1012,5 14 0 0,0
12.12.2017 23:00:00 1,4 0,1 0,1 3,3 8,4 17 9 26 14 Z 1013,2 16 0 0,0
12.12.2017 22:00:00 0,8 -0,5 0,0 3,3 8,3 16 9 23 12 Z 1013,8 16 0 0,0
12.12.2017 21:00:00 1,1 -0,4 -0,2 3,4 8,4 15 8 22 12 Z 1013,7 17 0 0,0
12.12.2017 20:00:00 1,0 -0,5 -1,0 3,5 8,4 13 7 19 10 Z 1013,5 10 0 0,0
12.12.2017 19:00:00 0,3 -1,0 -1,0 3,7 8,4 10 6 13 7 Z 1013,4 15 0 0,0
12.12.2017 18:00:00 1,8 -0,1 0,2 3,7 8,4 8 4 12 7 Z 1012,9 17 0 0,0
12.12.2017 17:00:00 3,4 0,4 2,0 3,8 8,4 11 6 16 8 ZW 1012,7 20 14 0,0
12.12.2017 16:00:00 4,6 0,7 4,5 3,7 8,4 11 6 22 12 ZW 1011,9 30 60 0,0
12.12.2017 15:00:00 5,1 0,8 6,3 3,7 8,4 16 9 28 15 WZW 1011,1 22 60 0,0
12.12.2017 14:00:00 5,1 1,4 4,9 3,5 8,4 16 8 24 13 WZW 1010,6 19 58 0,0
12.12.2017 13:00:00 3,7 1,2 2,3 3,5 8,4 16 8 28 15 WZW 1010,4 10 16 0,0
12.12.2017 12:00:00 2,2 0,6 1,3 3,4 8,4 17 9 29 15 WZW 1010,2 10 0 0,0
12.12.2017 11:00:00 1,5 0,0 1,0 3,3 8,4 21 11 31 17 WZW 1009,6 10 0 0,0
12.12.2017 10:00:00 1,3 0,1 0,7 3,3 8,5 20 11 29 16 W 1008,3 8 0 0,0
12.12.2017 09:00:00 1,0 0,0 0,6 3,3 8,5 18 10 27 15 WZW 1007,1 8 0 0,0
12.12.2017 08:00:00 1,0 0,0 0,5 3,3 8,5 17 9 29 16 W 1005,8 10 0 0,2
12.12.2017 07:00:00 0,8 -0,1 0,1 3,3 8,5 18 10 26 14 W 1004,5 8 0 0,2
12.12.2017 06:00:00 0,9 0,5 0,1 3,3 8,5 12 6 19 10 W 1003,0 7 0 1,6
12.12.2017 05:00:00 0,4 0,0 0,1 3,4 8,5 13 7 24 13 W 1001,7 2,4 0 1,8
12.12.2017 04:00:00 0,6 -0,1 0,1 3,5 8,5 17 9 29 15 W 1000,2 2,6 0 1,2
12.12.2017 03:00:00 1,5 0,5 0,9 3,5 8,5 18 10 37 20 W 998,5 14 0 0,2
12.12.2017 02:00:00 1,4 0,5 0,7 3,5 8,5 23 12 36 19 WZW 996,5 11 0 0,6
12.12.2017 01:00:00 1,5 0,5 1,0 3,5 8,5 18 10 36 20 W 995,1 47 0 0,0
12.12.2017 00:00:00 1,8 0,6 0,9 3,5 8,6 18 10 27 15 W 993,5 36 0 0,2
11.12.2017 23:00:00 1,9 0,3 0,9 3,5 8,6 13 7 36 19 WNW 991,1 5 0 0,2
11.12.2017 22:00:00 2,0 0,4 0,9 3,5 8,6 21 11 41 22 NW 988,8 37 0 0,0
11.12.2017 21:00:00 1,9 0,4 0,7 3,5 8,6 21 12 49 27 NW 986,6 47 0 0,0
11.12.2017 20:00:00 1,4 0,7 0,4 3,5 8,6 28 15 52 28 NNW 983,9 10 0 0,2
11.12.2017 19:00:00 0,7 0,4 0,2 3,6 8,6 29 16 60 33 NNW 981,1 4,5 0 0,8
11.12.2017 18:00:00 0,5 0,2 0,1 3,7 8,6 36 19 61 33 N 978,7 1,3 0 0,8
11.12.2017 17:00:00 0,5 -0,1 0,1 3,8 8,6 37 20 56 31 N 975,7 2,5 0 0,4
11.12.2017 16:00:00 1,1 0,5 1,0 3,8 8,6 33 18 51 27 N 973,6 4,9 0 0,4
11.12.2017 15:00:00 1,2 0,8 1,1 3,9 8,7 33 18 49 27 NNO 972,4 4,8 0 3,1
11.12.2017 14:00:00 1,3 0,7 1,2 3,9 8,7 35 19 55 30 NO 972,1 5 0 3,0
11.12.2017 13:00:00 1,4 0,7 1,2 4,0 8,7 36 20 55 30 NO 972,2 4,9 0 1,4
11.12.2017 12:00:00 1,4 0,7 0,8 4,0 8,7 32 17 61 33 ONO 973,4 7 0 1,4
11.12.2017 11:00:00 1,0 0,4 0,5 4,1 8,7 39 21 66 35 NO 974,0 6 0 2,0
11.12.2017 10:00:00 0,6 0,2 0,1 4,3 8,7 38 20 61 33 NNO 975,5 4,0 0 2,9
11.12.2017 09:00:00 2,3 1,3 1,8 4,4 8,7 36 19 56 30 NO 976,1 4,3 0 3,0
11.12.2017 08:00:00 3,2 2,2 2,9 4,4 8,7 34 18 50 27 ONO 976,3 6 0 1,6
11.12.2017 07:00:00 3,4 2,4 3,1 4,3 8,7 28 15 40 21 ONO 977,3 6 0 0,6
11.12.2017 06:00:00 3,5 2,3 2,4 4,3 8,7 25 13 39 21 ONO 977,9 8 0 0,2
11.12.2017 05:00:00 2,6 1,1 2,5 4,3 8,8 18 10 25 14 NO 979,7 10 0 0,0
11.12.2017 04:00:00 2,7 1,1 1,5 4,4 8,8 15 8 21 11 NO 981,4 10 0 0,0
11.12.2017 03:00:00 1,6 0,4 1,1 4,4 8,8 13 7 19 10 O 982,4 16 0 0,0
11.12.2017 02:00:00 1,6 0,3 1,1 4,5 8,8 10 5 16 8 O 981,8 11 0 0,0
11.12.2017 01:00:00 1,9 0,7 0,9 4,5 8,8 8 4 16 9 OZO 982,7 15 0 0,0
11.12.2017 00:00:00 1,4 -0,1 -0,3 4,6 8,8 4 2 11 6 Z 983,1 17 0 0,0
10.12.2017 23:00:00 2,0 -0,3 0,9 4,7 8,8 9 5 16 8 NW 982,6 32 0 0,0
10.12.2017 22:00:00 2,6 -0,2 1,9 4,8 8,8 13 7 31 17 W 982,4 46 0 0,0
10.12.2017 21:00:00 3,1 0,5 2,4 4,9 8,8 21 11 38 20 W 981,7 58 0 0,0
10.12.2017 20:00:00 3,8 0,8 3,0 4,9 8,9 27 15 59 32 W 980,0 57 0 0,0
10.12.2017 19:00:00 6,5 3,3 5,7 4,8 8,9 41 22 80 43 W 978,3 10 0 0,0
10.12.2017 18:00:00 7,6 4,9 6,5 4,6 8,9 31 17 73 40 WZW 976,9 14 0 1,6

tt = temperatuur
td = dauwpunt
tt 5cm = temperatuur 5cm
tt -20cm = temperatuur -20cm
tt -100cm = temperatuur -100cm
ff = windsnelheid
fx = windstoten
dd = windrichting
ppp = luchtdruk
vv = zicht
sd = Zonneschijnduur
rr = neerslag

Weerstations in de omgeving